CCA1282 ZLIC-ZBAA

Flight info

Callsign CCA1282
Flight time 1h 24m
Altitude 29100
Route YHD W217 VIKON W72 DUDIL W69 GUVBA
Aircraft B738/M-SDE2E3FGHIRWXY/LB1

Departure

Time 2026-05-05 16:37
Airport Yinchuan Hedong International Airport (ZLIC)

Arrival

Time 2026-05-05 18:02
Airport Beijing Capital International Airport (ZBAA)
Time Latitude Longitude Altitude Speed Heading
2026-05-05 16:29 38.31804 106.38419 3733 ft 1 kts 298°
2026-05-05 16:29 38.31802 106.38425 3735 ft 2 kts 298°
2026-05-05 16:30 38.31792 106.38446 3735 ft 3 kts 298°
2026-05-05 16:30 38.31783 106.38468 3735 ft 3 kts 300°
2026-05-05 16:30 38.31772 106.38489 3735 ft 3 kts 316°
2026-05-05 16:30 38.31758 106.38501 3735 ft 3 kts
2026-05-05 16:31 38.31748 106.38498 3735 ft 1 kts 29°
2026-05-05 16:31 38.31733 106.38487 3736 ft 2 kts 29°
2026-05-05 16:31 38.31727 106.38483 3736 ft 0 kts 29°
2026-05-05 16:32 38.31728 106.38483 3736 ft 1 kts 29°
2026-05-05 16:32 38.31751 106.38500 3735 ft 7 kts 29°
2026-05-05 16:32 38.31800 106.38543 3734 ft 7 kts 63°
2026-05-05 16:33 38.31775 106.38605 3734 ft 9 kts 118°
2026-05-05 16:33 38.31731 106.38682 3734 ft 12 kts 148°
2026-05-05 16:33 38.31649 106.38652 3736 ft 14 kts 211°
2026-05-05 16:33 38.31561 106.38588 3738 ft 15 kts 208°
2026-05-05 16:34 38.31474 106.38527 3740 ft 14 kts 210°
2026-05-05 16:34 38.31394 106.38467 3741 ft 13 kts 210°
2026-05-05 16:34 38.31315 106.38410 3742 ft 13 kts 208°
2026-05-05 16:34 38.31236 106.38356 3744 ft 13 kts 209°
2026-05-05 16:35 38.31148 106.38293 3745 ft 16 kts 209°
2026-05-05 16:35 38.31047 106.38221 3747 ft 18 kts 209°
2026-05-05 16:35 38.30931 106.38137 3746 ft 21 kts 209°
2026-05-05 16:35 38.30815 106.38065 3744 ft 16 kts 182°
2026-05-05 16:36 38.30744 106.38158 3744 ft 14 kts 120°
2026-05-05 16:36 38.30764 106.38259 3743 ft 14 kts 32°
2026-05-05 16:36 38.30852 106.38322 3745 ft 26 kts 30°
2026-05-05 16:36 38.31213 106.38579 3746 ft 92 kts 29°
2026-05-05 16:37 38.31953 106.39110 3734 ft 150 kts 29°
2026-05-05 16:37 38.32997 106.39867 3819 ft 189 kts 30°
2026-05-05 16:37 38.34165 106.40633 4536 ft 191 kts 26°
2026-05-05 16:37 38.35372 106.41362 5282 ft 191 kts 24°
2026-05-05 16:38 38.36562 106.42141 5906 ft 199 kts 27°
2026-05-05 16:38 38.37858 106.43043 6128 ft 225 kts 27°
2026-05-05 16:38 38.39296 106.44038 6464 ft 245 kts 26°
2026-05-05 16:38 38.40816 106.45091 6993 ft 257 kts 28°
2026-05-05 16:39 38.42143 106.46636 7708 ft 266 kts 56°
2026-05-05 16:39 38.42905 106.48794 8615 ft 269 kts 67°
2026-05-05 16:39 38.43521 106.51065 9427 ft 274 kts 68°
2026-05-05 16:39 38.44128 106.53381 10144 ft 278 kts 69°
2026-05-05 16:40 38.44751 106.55753 10700 ft 290 kts 69°
2026-05-05 16:40 38.45426 106.58292 10861 ft 315 kts 69°
2026-05-05 16:40 38.46159 106.61031 11036 ft 337 kts 69°
2026-05-05 16:40 38.46933 106.63909 11213 ft 357 kts 70°
2026-05-05 16:41 38.47753 106.66954 11639 ft 367 kts 70°
2026-05-05 16:41 38.48588 106.70054 12260 ft 371 kts 70°
2026-05-05 16:41 38.49433 106.73186 12915 ft 375 kts 70°
2026-05-05 16:41 38.50261 106.76355 13526 ft 379 kts 75°
2026-05-05 16:42 38.50457 106.79725 14016 ft 385 kts 97°
2026-05-05 16:42 38.49727 106.83012 14577 ft 388 kts 117°
2026-05-05 16:42 38.48418 106.86029 15198 ft 390 kts 118°
2026-05-05 16:42 38.47523 106.89254 15714 ft 396 kts 98°
2026-05-05 16:43 38.47595 106.92769 16283 ft 401 kts 77°
2026-05-05 16:43 38.48652 106.96060 16818 ft 405 kts 56°
2026-05-05 16:43 38.50531 106.98741 17329 ft 409 kts 36°
2026-05-05 16:43 38.52204 107.00117 17701 ft 410 kts 29°
2026-05-05 16:44 38.54706 107.01912 18181 ft 415 kts 27°
2026-05-05 16:44 38.57257 107.03695 18607 ft 420 kts 27°
2026-05-05 16:44 38.59798 107.05482 19074 ft 424 kts 27°
2026-05-05 16:44 38.62384 107.07327 19545 ft 428 kts 27°
2026-05-05 16:45 38.64988 107.09210 20029 ft 431 kts 26°
2026-05-05 16:45 38.67607 107.11119 20487 ft 435 kts 26°
2026-05-05 16:45 38.70247 107.13049 20943 ft 439 kts 26°
2026-05-05 16:45 38.72903 107.14990 21399 ft 442 kts 26°
2026-05-05 16:46 38.75542 107.17038 21835 ft 448 kts 33°
2026-05-05 16:46 38.77803 107.19861 22243 ft 458 kts 46°
2026-05-05 16:46 38.79870 107.22984 22680 ft 462 kts 46°
2026-05-05 16:46 38.81941 107.26152 23057 ft 466 kts 46°
2026-05-05 16:47 38.84011 107.29292 23395 ft 469 kts 45°
2026-05-05 16:47 38.86141 107.32482 23722 ft 472 kts 45°
2026-05-05 16:47 38.88290 107.35669 24082 ft 473 kts 45°
2026-05-05 16:47 38.90455 107.38867 24430 ft 475 kts 44°
2026-05-05 16:48 38.92631 107.42081 24767 ft 478 kts 45°
2026-05-05 16:48 38.94814 107.45311 25086 ft 480 kts 45°
2026-05-05 16:48 38.97009 107.48566 25398 ft 483 kts 45°
2026-05-05 16:48 38.99213 107.51837 25712 ft 485 kts 45°
2026-05-05 16:49 39.01399 107.55085 26013 ft 488 kts 45°
2026-05-05 16:49 39.03623 107.58396 26319 ft 490 kts 45°
2026-05-05 16:49 39.05853 107.61717 26677 ft 491 kts 45°
2026-05-05 16:49 39.08084 107.65044 27102 ft 490 kts 45°
2026-05-05 16:50 39.10310 107.68368 27539 ft 490 kts 45°
2026-05-05 16:50 39.12532 107.71690 27917 ft 490 kts 45°
2026-05-05 16:50 39.14760 107.75024 28285 ft 491 kts 45°
2026-05-05 16:50 39.16989 107.78365 28675 ft 492 kts 44°
2026-05-05 16:51 39.19193 107.81670 28835 ft 496 kts 44°
2026-05-05 16:51 39.21444 107.85048 28826 ft 497 kts 44°
2026-05-05 16:51 39.25915 107.91773 28813 ft 490 kts 44°
2026-05-05 16:52 39.30362 107.98466 28845 ft 492 kts 44°
2026-05-05 16:52 39.34816 108.05184 28840 ft 493 kts 44°
2026-05-05 16:53 39.39248 108.11886 28845 ft 494 kts 44°
2026-05-05 16:53 39.43708 108.18648 28835 ft 494 kts 44°
2026-05-05 16:54 39.48156 108.25406 28834 ft 493 kts 44°
2026-05-05 16:54 39.52587 108.32152 28831 ft 491 kts 45°
2026-05-05 16:55 39.56744 108.39116 28841 ft 492 kts 50°
2026-05-05 16:55 39.60677 108.46345 28922 ft 481 kts 53°
2026-05-05 16:56 39.62560 108.49837 28835 ft 464 kts 53°
2026-05-05 16:56 39.64386 108.53205 28834 ft 453 kts 53°
2026-05-05 16:56 39.68068 108.59924 28847 ft 463 kts 52°
2026-05-05 16:57 39.71847 108.66784 28826 ft 467 kts 52°
2026-05-05 16:57 39.75590 108.73593 28824 ft 465 kts 52°
2026-05-05 16:58 39.79335 108.80425 28837 ft 463 kts 52°
2026-05-05 16:58 39.83064 108.87241 28828 ft 462 kts 52°
2026-05-05 16:59 39.86785 108.94057 28837 ft 462 kts 53°
2026-05-05 16:59 39.90472 109.00826 28833 ft 461 kts 53°
2026-05-05 17:00 39.94182 109.07653 28839 ft 462 kts 53°
2026-05-05 17:00 39.97887 109.14485 28837 ft 462 kts 53°
2026-05-05 17:01 40.01598 109.21344 28833 ft 463 kts 53°
2026-05-05 17:01 40.05281 109.28163 28842 ft 463 kts 53°
2026-05-05 17:02 40.08986 109.35040 28843 ft 463 kts 53°
2026-05-05 17:02 40.12687 109.41926 28849 ft 463 kts 53°
2026-05-05 17:03 40.16383 109.48816 28833 ft 463 kts 53°
2026-05-05 17:03 40.20071 109.55707 28847 ft 462 kts 53°
2026-05-05 17:04 40.23733 109.62563 28849 ft 463 kts 53°
2026-05-05 17:04 40.27418 109.69478 28844 ft 463 kts 53°
2026-05-05 17:05 40.31098 109.76398 28834 ft 463 kts 53°
2026-05-05 17:05 40.34778 109.83337 28828 ft 464 kts 53°
2026-05-05 17:06 40.38433 109.90242 28832 ft 464 kts 53°
2026-05-05 17:06 40.42116 109.97216 28829 ft 465 kts 53°
2026-05-05 17:07 40.45558 110.04439 28827 ft 467 kts 57°
2026-05-05 17:07 40.48854 110.11800 28834 ft 468 kts 57°
2026-05-05 17:08 40.52156 110.19113 28833 ft 469 kts 57°
2026-05-05 17:08 40.55508 110.26476 28847 ft 470 kts 57°
2026-05-05 17:09 40.58863 110.33853 28843 ft 470 kts 57°
2026-05-05 17:09 40.62170 110.41219 28841 ft 472 kts 60°
2026-05-05 17:10 40.63436 110.45212 28850 ft 475 kts 71°
2026-05-05 17:10 40.64212 110.49446 28854 ft 477 kts 79°
2026-05-05 17:10 40.64431 110.58205 28858 ft 480 kts 90°
2026-05-05 17:11 40.64255 110.67002 28851 ft 481 kts 90°
2026-05-05 17:11 40.64116 110.75812 28866 ft 481 kts 89°
2026-05-05 17:12 40.64019 110.84570 28854 ft 482 kts 89°
2026-05-05 17:12 40.63925 110.93390 28852 ft 482 kts 89°
2026-05-05 17:13 40.63821 111.02217 28854 ft 482 kts 89°
2026-05-05 17:13 40.63726 111.09767 28851 ft 483 kts 89°
2026-05-05 17:14 40.63609 111.18542 28854 ft 483 kts 90°
2026-05-05 17:14 40.63482 111.27391 28851 ft 483 kts 90°
2026-05-05 17:15 40.63347 111.36234 28845 ft 483 kts 90°
2026-05-05 17:15 40.63207 111.45086 28850 ft 484 kts 90°
2026-05-05 17:16 40.63061 111.53881 28851 ft 484 kts 90°
2026-05-05 17:16 40.62907 111.62741 28860 ft 484 kts 90°
2026-05-05 17:17 40.62747 111.71604 28859 ft 484 kts 90°
2026-05-05 17:17 40.62581 111.80471 28864 ft 485 kts 90°
2026-05-05 17:18 40.62411 111.89336 28862 ft 485 kts 90°
2026-05-05 17:18 40.62255 111.98144 28862 ft 485 kts 90°
2026-05-05 17:19 40.62048 112.07011 28858 ft 485 kts 90°
2026-05-05 17:19 40.61847 112.15886 28858 ft 485 kts 90°
2026-05-05 17:20 40.61646 112.24766 28853 ft 486 kts 90°
2026-05-05 17:20 40.61438 112.33599 28863 ft 486 kts 90°
2026-05-05 17:21 40.61221 112.42490 28860 ft 486 kts 90°
2026-05-05 17:22 40.60747 112.55829 28855 ft 487 kts 93°
2026-05-05 17:22 40.60185 112.64641 28853 ft 487 kts 93°
2026-05-05 17:23 40.59662 112.73521 28853 ft 487 kts 93°
2026-05-05 17:23 40.58919 112.82377 28852 ft 488 kts 95°
2026-05-05 17:24 40.58291 112.91264 28851 ft 488 kts 93°
2026-05-05 17:24 40.57752 113.00092 28843 ft 488 kts 93°
2026-05-05 17:25 40.57163 113.09001 28689 ft 492 kts 94°
2026-05-05 17:25 40.56960 113.11981 28466 ft 494 kts 94°
2026-05-05 17:25 40.56548 113.17986 28048 ft 491 kts 94°
2026-05-05 17:25 40.56241 113.22428 27727 ft 485 kts 94°
2026-05-05 17:26 40.55935 113.26824 27407 ft 481 kts 94°
2026-05-05 17:26 40.55635 113.31144 27107 ft 480 kts 94°
2026-05-05 17:26 40.55331 113.35500 26803 ft 478 kts 94°
2026-05-05 17:26 40.55026 113.39846 26495 ft 476 kts 94°
2026-05-05 17:27 40.54720 113.44175 26200 ft 475 kts 94°
2026-05-05 17:27 40.54415 113.48488 25904 ft 473 kts 94°
2026-05-05 17:27 40.54108 113.52784 25612 ft 472 kts 94°
2026-05-05 17:27 40.53801 113.57065 25318 ft 470 kts 94°
2026-05-05 17:28 40.53494 113.61330 25033 ft 468 kts 94°
2026-05-05 17:28 40.53186 113.65579 24743 ft 466 kts 94°
2026-05-05 17:28 40.52882 113.69751 24469 ft 464 kts 94°
2026-05-05 17:28 40.52574 113.73966 24188 ft 462 kts 94°
2026-05-05 17:29 40.52266 113.78155 23903 ft 460 kts 94°
2026-05-05 17:29 40.51958 113.82315 23596 ft 453 kts 94°
2026-05-05 17:29 40.51655 113.86395 23297 ft 445 kts 94°
2026-05-05 17:29 40.51356 113.90406 22937 ft 437 kts 94°
2026-05-05 17:30 40.51061 113.94354 22583 ft 431 kts 94°
2026-05-05 17:30 40.50766 113.98265 22237 ft 430 kts 95°
2026-05-05 17:30 40.50510 114.02125 21908 ft 429 kts 92°
2026-05-05 17:30 40.50340 114.06028 21559 ft 427 kts 91°
2026-05-05 17:31 40.50202 114.09921 21239 ft 426 kts 91°
2026-05-05 17:31 40.50063 114.13799 20909 ft 424 kts 92°
2026-05-05 17:31 40.49912 114.17659 20591 ft 423 kts 92°
2026-05-05 17:31 40.49752 114.21511 20266 ft 421 kts 92°
2026-05-05 17:32 40.49585 114.25343 19949 ft 419 kts 92°
2026-05-05 17:32 40.49419 114.29109 19632 ft 418 kts 92°
2026-05-05 17:32 40.49251 114.32906 19321 ft 415 kts 92°
2026-05-05 17:32 40.49083 114.36687 19000 ft 413 kts 93°
2026-05-05 17:33 40.48915 114.40443 18705 ft 411 kts 93°
2026-05-05 17:33 40.48747 114.44176 18417 ft 408 kts 93°
2026-05-05 17:33 40.48579 114.47889 18156 ft 405 kts 93°
2026-05-05 17:33 40.48412 114.51567 17881 ft 402 kts 93°
2026-05-05 17:34 40.48245 114.55215 17589 ft 399 kts 93°
2026-05-05 17:34 40.48131 114.57695 17407 ft 398 kts 93°
2026-05-05 17:34 40.47966 114.61256 17148 ft 395 kts 93°
2026-05-05 17:34 40.47798 114.64852 16888 ft 393 kts 93°
2026-05-05 17:35 40.47630 114.68423 16618 ft 391 kts 93°
2026-05-05 17:35 40.47462 114.71985 16377 ft 390 kts 93°
2026-05-05 17:35 40.47293 114.75532 16115 ft 389 kts 94°
2026-05-05 17:35 40.47124 114.79073 15860 ft 388 kts 94°
2026-05-05 17:36 40.46954 114.82598 15611 ft 386 kts 94°
2026-05-05 17:36 40.46783 114.86116 15368 ft 385 kts 94°
2026-05-05 17:36 40.46614 114.89574 15127 ft 384 kts 94°
2026-05-05 17:36 40.46443 114.93073 14881 ft 383 kts 94°
2026-05-05 17:37 40.46270 114.96559 14646 ft 383 kts 94°
2026-05-05 17:37 40.46156 114.98864 14489 ft 382 kts 94°
2026-05-05 17:37 40.45923 115.03509 14187 ft 381 kts 94°
2026-05-05 17:37 40.45749 115.06984 13951 ft 381 kts 94°
2026-05-05 17:38 40.45573 115.10453 13727 ft 381 kts 94°
2026-05-05 17:38 40.45397 115.13920 13493 ft 381 kts 94°
2026-05-05 17:38 40.45222 115.17343 13225 ft 380 kts 94°
2026-05-05 17:38 40.45044 115.20786 12979 ft 378 kts 94°
2026-05-05 17:39 40.44866 115.24225 12721 ft 377 kts 94°
2026-05-05 17:39 40.44688 115.27639 12545 ft 373 kts 94°
2026-05-05 17:39 40.44510 115.31043 12515 ft 373 kts 94°
2026-05-05 17:39 40.44331 115.34437 12502 ft 372 kts 94°
2026-05-05 17:40 40.44152 115.37820 12499 ft 372 kts 94°
2026-05-05 17:40 40.43972 115.41207 12499 ft 372 kts 94°
2026-05-05 17:40 40.43791 115.44597 12515 ft 372 kts 94°
2026-05-05 17:40 40.43608 115.47984 12510 ft 373 kts 94°
2026-05-05 17:41 40.43421 115.51332 12509 ft 373 kts 96°
2026-05-05 17:41 40.42773 115.54599 12504 ft 370 kts 116°
2026-05-05 17:41 40.41579 115.57529 12422 ft 360 kts 121°
2026-05-05 17:41 40.40355 115.60366 12144 ft 352 kts 121°
2026-05-05 17:42 40.39185 115.63112 11874 ft 339 kts 120°
2026-05-05 17:42 40.38070 115.65775 11573 ft 328 kts 120°
2026-05-05 17:42 40.36995 115.68360 11271 ft 318 kts 120°
2026-05-05 17:42 40.35848 115.70784 10947 ft 308 kts 135°
2026-05-05 17:43 40.34192 115.72457 10667 ft 297 kts 157°
2026-05-05 17:43 40.32279 115.73268 10408 ft 293 kts 171°
2026-05-05 17:43 40.30264 115.73808 10136 ft 298 kts 172°
2026-05-05 17:43 40.28214 115.74340 9886 ft 300 kts 172°
2026-05-05 17:44 40.26195 115.74915 9824 ft 296 kts 166°
2026-05-05 17:44 40.24283 115.75883 9827 ft 295 kts 159°
2026-05-05 17:44 40.22399 115.76998 9818 ft 298 kts 159°
2026-05-05 17:44 40.20505 115.78106 9812 ft 298 kts 159°
2026-05-05 17:45 40.18612 115.79194 9796 ft 297 kts 159°
2026-05-05 17:45 40.16814 115.80532 9814 ft 299 kts 148°
2026-05-05 17:45 40.15141 115.82093 9801 ft 299 kts 147°
2026-05-05 17:45 40.13461 115.83677 9793 ft 297 kts 148°
2026-05-05 17:46 40.11779 115.85230 9790 ft 295 kts 148°
2026-05-05 17:46 40.10151 115.86868 9806 ft 298 kts 139°
2026-05-05 17:46 40.08688 115.88801 9805 ft 300 kts 136°
2026-05-05 17:46 40.07418 115.90962 9793 ft 304 kts 116°
2026-05-05 17:47 40.06916 115.93642 9807 ft 307 kts 90°
2026-05-05 17:47 40.07313 115.96361 9802 ft 307 kts 64°
2026-05-05 17:47 40.08503 115.98586 9649 ft 303 kts 40°
2026-05-05 17:47 40.10100 116.00322 9441 ft 297 kts 35°
2026-05-05 17:48 40.11725 116.01967 9222 ft 293 kts 34°
2026-05-05 17:48 40.13334 116.03577 8970 ft 289 kts 35°
2026-05-05 17:48 40.14920 116.05168 8748 ft 286 kts 35°
2026-05-05 17:48 40.16492 116.06756 8524 ft 285 kts 35°
2026-05-05 17:49 40.18059 116.08347 8285 ft 285 kts 35°
2026-05-05 17:49 40.19617 116.09937 8067 ft 283 kts 36°
2026-05-05 17:49 40.21167 116.11523 7851 ft 283 kts 36°
2026-05-05 17:49 40.22692 116.13087 7619 ft 282 kts 36°
2026-05-05 17:50 40.24236 116.14673 7420 ft 282 kts 36°
2026-05-05 17:50 40.25781 116.16261 7210 ft 283 kts 36°
2026-05-05 17:50 40.27326 116.17852 7008 ft 283 kts 36°
2026-05-05 17:50 40.28875 116.19448 6930 ft 284 kts 36°
2026-05-05 17:51 40.30429 116.21055 6902 ft 283 kts 37°
2026-05-05 17:51 40.31958 116.22633 6899 ft 278 kts 37°
2026-05-05 17:51 40.33479 116.24200 6911 ft 279 kts 36°
2026-05-05 17:51 40.34985 116.25754 6903 ft 279 kts 37°
2026-05-05 17:52 40.36508 116.27329 6904 ft 279 kts 36°
2026-05-05 17:52 40.38032 116.28906 6902 ft 279 kts 36°
2026-05-05 17:52 40.39413 116.30670 6879 ft 279 kts 58°
2026-05-05 17:52 40.40092 116.33031 6761 ft 276 kts 84°
2026-05-05 17:53 40.40230 116.35491 6554 ft 267 kts 90°
2026-05-05 17:53 40.40315 116.37905 6279 ft 263 kts 90°
2026-05-05 17:53 40.40402 116.40273 6039 ft 257 kts 90°
2026-05-05 17:53 40.40495 116.42573 5814 ft 246 kts 89°
2026-05-05 17:54 40.40587 116.44771 5594 ft 240 kts 90°
2026-05-05 17:54 40.40633 116.46916 5331 ft 235 kts 93°
2026-05-05 17:54 40.40638 116.49021 5079 ft 226 kts 98°
2026-05-05 17:54 40.40151 116.50863 4952 ft 210 kts 134°
2026-05-05 17:55 40.39070 116.52090 4908 ft 205 kts 158°
2026-05-05 17:55 40.37724 116.52613 4632 ft 202 kts 174°
2026-05-05 17:55 40.36342 116.52860 4362 ft 199 kts 176°
2026-05-05 17:55 40.34973 116.53070 3999 ft 196 kts 176°
2026-05-05 17:56 40.33639 116.53269 3733 ft 190 kts 176°
2026-05-05 17:56 40.32357 116.53464 3433 ft 186 kts 175°
2026-05-05 17:56 40.31081 116.53661 3192 ft 185 kts 175°
2026-05-05 17:56 40.29811 116.53860 3049 ft 183 kts 175°
2026-05-05 17:57 40.28552 116.54057 3007 ft 183 kts 175°
2026-05-05 17:57 40.27298 116.54257 2997 ft 181 kts 175°
2026-05-05 17:57 40.26053 116.54454 2984 ft 179 kts 175°
2026-05-05 17:57 40.24843 116.54647 2914 ft 172 kts 176°
2026-05-05 17:58 40.23667 116.54834 2733 ft 167 kts 176°
2026-05-05 17:58 40.22562 116.55009 2522 ft 158 kts 176°
2026-05-05 17:58 40.21504 116.55179 2352 ft 152 kts 175°
2026-05-05 17:58 40.20463 116.55342 2135 ft 149 kts 176°
2026-05-05 17:59 40.19457 116.55500 1946 ft 142 kts 176°
2026-05-05 17:59 40.18477 116.55655 1762 ft 142 kts 176°
2026-05-05 17:59 40.17496 116.55811 1574 ft 142 kts 175°
2026-05-05 17:59 40.16514 116.55968 1387 ft 142 kts 174°
2026-05-05 18:00 40.15546 116.56121 1195 ft 140 kts 174°
2026-05-05 18:00 40.14582 116.56273 1011 ft 143 kts 173°
2026-05-05 18:00 40.13574 116.56434 806 ft 149 kts 173°
2026-05-05 18:00 40.12544 116.56597 618 ft 148 kts 173°
2026-05-05 18:01 40.11528 116.56761 405 ft 148 kts 173°
2026-05-05 18:01 40.10508 116.56927 215 ft 148 kts 173°
2026-05-05 18:01 40.09509 116.57091 125 ft 137 kts 173°
2026-05-05 18:01 40.08774 116.57197 119 ft 75 kts 173°
2026-05-05 18:02 40.08446 116.57257 119 ft 22 kts 161°
2026-05-05 18:02 40.08360 116.57319 120 ft 11 kts 143°
2026-05-05 18:02 40.08320 116.57358 120 ft 11 kts 143°
2026-05-05 18:02 40.08295 116.57381 122 ft 0 kts 145°